Participated 11 times
Between 1987 and 2000
Jesper Skibby, Denmark
Tour de France 2026 starts from Barcelona, Spain in

Stats and Facts from
Tour de France.

2026   2025   2024   2023  2022  2021  2020  2019   2018  2017   2016   2015  2014  2013   2012   2011  2010   2009   2008   2007   2006   2005   2004   2003   2002   2001   2000   1999   1998   1997  1996   1995   1994   1993   1992  1991   1990   1989   1988   1987   1986   1985   1984   1983  1982  1981   1980   1979  1978  1977   1976  1975  1974  1973   1972   1971   1970  1969   1968   1967   1966   1965  1964  1963   1962   1961   1960   1959   1958   1957  1956   1955   1954   1953   1952  1951  1950  1949   1948  1947  1939   1938   1937   1936   1935   1934   1933  1932   1931   1930  1929   1928   1927   1926  1925  1924  1923   1922   1921   1920   1919  1914   1913   1912   1911   1910  1909   1908   1907   1906  1905  1904   1903 

Tourstats
Sitemap

After stage 21 - 2025:
 16451 starters.
  5463 different riders.
  689 teams.
  2398 stages.
  470 restdays.
  466506.50 km.
  5925 abandoned riders.

Click map for 1947 route.
Facts from Tour de France 1947 Additional info and images from 1947.
  |   Stages.  |   Stage winners.  |   Days in jerseys.  |   Teams.  |   All riders.  |   All riders by age.  |   All riders from.  |  

  |   Rookies.  |   Withdrawls.  |   Average speed.  |   GC.  |   Polka  |   Green  |   White  |   Summits. (In tour)  |   Miscellaneous.  |  

Stage 1 on June 25th. 1947
Pick a stage:  1  2  3  4  5  6  7  8  9  10  11  12  13  14  15  16  17  18  19  20  21  

After stage 1:    Ferdi Kubler  
  ParisLille | Dist: 236.00km. | Winner: Ferdi Kubler

Podium

Average speed for all riders in stage:  33,271 km./hr.

1
 Ferdi Kubler  Switzerland-Luxembourg06h 51' 55"=34,376  km/h

2
 Andre Mahé  Ouest06h 51' 55"=34,376  km/h

3
 Kléber Piot  France06h 53' 19"+  00:01:24 =34,259  km/h

4  Arie Vooren  Holland-Etrangers De France06h 53' 25"+  00:01:30 =34,251  km/h

5  Edouard Klabinski  Holland-Etrangers De France06h 53' 34"+  00:01:39 =34,239  km/h

6  Briek Schotte  Belgium06h 53' 42"+  00:01:47 =34,228  km/h

7  Aldo Ronconi  Italy06h 53' 47"+  00:01:52 =34,221  km/h

8  Pierre Brambilla  Italy06h 53' 52"+  00:01:57 =34,214  km/h

9  Jean Robic  Ouest06h 54' 04"+  00:02:09 =34,197  km/h

10  Giuseppe Tacca  Italy06h 54' 04"+  00:02:09 =34,197  km/h

11  René Vietto  France06h 54' 53"+  00:02:58 =34,130  km/h

12  Emile Idée  France06h 55' 27"+  00:03:32 =34,084  km/h

13  Leo Weilenmann  Switzerland-Luxembourg06h 55' 27"+  00:03:32 =34,084  km/h

14  Camille Danguillaume  Centre-Sud Ouest06h 55' 27"+  00:03:32 =34,084  km/h

15  Victor Pernac  Sud Est06h 55' 27"+  00:03:32 =34,084  km/h

16  Joseph Neri  Centre-Sud Ouest06h 55' 27"+  00:03:32 =34,084  km/h

17  Louison Bobet  France06h 55' 27"+  00:03:32 =34,084  km/h

18  Gottfried Weilenmann  Switzerland-Luxembourg06h 55' 27"+  00:03:32 =34,084  km/h

19  Louis Bocquet  Ouest06h 55' 27"+  00:03:32 =34,084  km/h

20  Louis Deprez  Nord Est06h 55' 43"+  00:03:48 =34,062  km/h

21  Eloi Tassin  Ouest06h 55' 56"+  00:04:01 =34,044  km/h

22  Georges Martin  Nord Est06h 55' 56"+  00:04:01 =34,044  km/h

23  Raymond Impanis  Belgium06h 56' 10"+  00:04:15 =34,025  km/h

24  Huub Sijen  Holland-Etrangers De France06h 56' 41"+  00:04:46 =33,983  km/h

25  Pierre Cogan  Ouest06h 57' 17"+  00:05:22 =33,934  km/h

26  Lucien Teisseire  France06h 57' 49"+  00:05:54 =33,890  km/h

27  Albert Van Schendel  Holland-Etrangers De France06h 57' 59"+  00:06:04 =33,877  km/h

28  Fermo Camellini  Holland-Etrangers De France06h 58' 02"+  00:06:07 =33,873  km/h

29  Victor Cosson  Île-de-France06h 58' 05"+  00:06:10 =33,869  km/h

30  Pierre Fautrier  Sud Est06h 58' 27"+  00:06:32 =33,839  km/h

31  Jean-Marie Goasmat  Ouest06h 59' 18"+  00:07:23 =33,771  km/h

32  Antoine Latorre  Centre-Sud Ouest06h 59' 36"+  00:07:41 =33,746  km/h

33  Olimpio Bizzi  Italy06h 59' 41"+  00:07:46 =33,740  km/h

34  Roger Leveque  Centre-Sud Ouest07h 00' 33"+  00:08:38 =33,670  km/h

35  Daniel Thuayre  Île-de-France07h 00' 44"+  00:08:49 =33,656  km/h

36  Raoul Remy  Sud Est07h 01' 21"+  00:09:26 =33,606  km/h

37  Albert Bourlon  Centre-Sud Ouest07h 01' 37"+  00:09:42 =33,585  km/h

38  Édouard Fachleitner  France07h 01' 59"+  00:10:04 =33,556  km/h

39  Ange Le Strat  Ouest07h 01' 59"+  00:10:04 =33,556  km/h

40  Jean Goldschmit  Switzerland-Luxembourg07h 01' 59"+  00:10:04 =33,556  km/h

41  Elio Bertocchi  Italy07h 01' 59"+  00:10:04 =33,556  km/h

42  René Barret  Île-de-France07h 01' 59"+  00:10:04 =33,556  km/h

43  Florent Mathieu  Belgium07h 01' 59"+  00:10:04 =33,556  km/h

44  René Oreel  Belgium07h 01' 59"+  00:10:04 =33,556  km/h

45  Jean Kirchen  Switzerland-Luxembourg07h 01' 59"+  00:10:04 =33,556  km/h

46  Giordano Cottur  Italy07h 01' 59"+  00:10:04 =33,556  km/h

47  Jefke Janssen  Holland-Etrangers De France07h 01' 59"+  00:10:04 =33,556  km/h

48  Roger Ghyselinck  Belgium07h 01' 59"+  00:10:04 =33,556  km/h

49  André De Korver  Holland-Etrangers De France07h 01' 59"+  00:10:04 =33,556  km/h

50  Bouk Schellingerhoudt  Holland-Etrangers De France07h 01' 59"+  00:10:04 =33,556  km/h

51  Giovanni Corrieri  Italy07h 01' 59"+  00:10:04 =33,556  km/h

52  Maurice Diot  Île-de-France07h 02' 49"+  00:10:54 =33,490  km/h

53  Jean-Apotre Lazarides  Sud Est07h 03' 57"+  00:12:02 =33,400  km/h

54  Bernard Gauthier  Sud Est07h 03' 59"+  00:12:04 =33,398  km/h

55  Roger Pontet  Ouest07h 04' 19"+  00:12:24 =33,371  km/h

56  Jean De Gribaldy  Nord Est07h 05' 26"+  00:13:31 =33,284  km/h

57  Jean Diederich  Switzerland-Luxembourg07h 05' 40"+  00:13:45 =33,265  km/h

58  Prosper Depredomme  Belgium07h 05' 40"+  00:13:45 =33,265  km/h

59  Louis Gauthier  Nord Est07h 05' 55"+  00:14:00 =33,246  km/h

60  Jean-Baptiste Delille  Nord Est07h 06' 12"+  00:14:17 =33,224  km/h

61  Jean Breuer  Belgium07h 06' 30"+  00:14:35 =33,200  km/h

62  Albert Sercu  Belgium07h 06' 58"+  00:15:03 =33,164  km/h

63  Egidio Feruglio  Italy07h 07' 11"+  00:15:16 =33,147  km/h

64  Louis Caput  France07h 07' 27"+  00:15:32 =33,127  km/h

65  Maurice De Muer  Nord Est07h 07' 27"+  00:15:32 =33,127  km/h

66  Primo Volpi  Italy07h 07' 27"+  00:15:32 =33,127  km/h

67  Joseph Dessertine  Centre-Sud Ouest07h 07' 48"+  00:15:53 =33,100  km/h

68  Urbain Caffi  Île-de-France07h 07' 48"+  00:15:53 =33,100  km/h

69  Gaston Rousseau  Ouest07h 07' 56"+  00:16:01 =33,089  km/h

70  Henri Massal  France07h 08' 36"+  00:16:41 =33,038  km/h

71  Gaston Audier  Nord Est07h 08' 49"+  00:16:54 =33,021  km/h

72  Victor Joly  Holland-Etrangers De France07h 08' 49"+  00:16:54 =33,021  km/h

73  Pietro Tarchini  Switzerland-Luxembourg07h 09' 10"+  00:17:15 =32,994  km/h

74  Maurice Mollin  Belgium07h 09' 20"+  00:17:25 =32,981  km/h

75  Léo Amberg  Switzerland-Luxembourg07h 09' 41"+  00:17:46 =32,955  km/h

76  Paul Neri  Sud Est07h 11' 34"+  00:19:39 =32,811  km/h

77  Pascal Gnazzo  Sud Est07h 12' 59"+  00:21:04 =32,703  km/h

78  Raphaël Geminiani  Centre-Sud Ouest07h 12' 59"+  00:21:04 =32,703  km/h

79  Paul Giguet  Sud Est07h 12' 59"+  00:21:04 =32,703  km/h

80  Paul Maye  Île-de-France07h 15' 17"+  00:23:22 =32,531  km/h

81  Manuel Huguet  France07h 15' 36"+  00:23:41 =32,507  km/h

82  Alfred Macorig  Centre-Sud Ouest07h 17' 22"+  00:25:27 =32,376  km/h

83  Robert Bonnaventure  Île-de-France07h 17' 22"+  00:25:27 =32,376  km/h

84  Eugenio Galliussi  Holland-Etrangers De France07h 17' 54"+  00:25:59 =32,336  km/h

85  Vincenzo Rossello  Italy07h 17' 54"+  00:25:59 =32,336  km/h

86  Alphonse De Vreese  Nord Est07h 17' 54"+  00:25:59 =32,336  km/h

87  Yves Pierracci  Centre-Sud Ouest07h 17' 59"+  00:26:04 =32,330  km/h

88  Robert Lang  Switzerland-Luxembourg07h 18' 02"+  00:26:07 =32,326  km/h

89  Robert Dorgebray  Nord Est07h 18' 25"+  00:26:30 =32,298  km/h

90  Raymond Lucas  Île-de-France07h 18' 33"+  00:26:38 =32,288  km/h

91  Henri Ackermann  Switzerland-Luxembourg07h 18' 53"+  00:26:58 =32,264  km/h

92  Robert Charpentier  Île-de-France07h 21' 00"+  00:29:05 =32,109  km/h

93  Raymond Guegan  Ouest07h 21' 37"+  00:29:42 =32,064  km/h

94  Edouard Muller  Île-de-France07h 22' 56"+  00:31:01 =31,969  km/h

95  Alexandre Pawlisiak  Nord Est07h 23' 43"+  00:31:48 =31,912  km/h

96  Norbert Callens  Belgium07h 26' 12"+  00:34:17 =31,735  km/h

97  Marius Bonnet  Sud Est07h 31' 05"+  00:39:10 =31,391  km/h

98  Joseph Berrini  Centre-Sud Ouest07h 44' 07"+  00:52:12 =30,510  km/h

99  Ahmed Chibane  Sud Est07h 46' 08"+  00:54:13 =30,378  km/h


Withdrawls: 1
 RiderTeamReason
49   Louis Thiétard FranceDid not finish
Todays birthdays.

1869 • Adolphe Dorion
1884 • Achille Germain
1886 • Emile Eigeldinger
1896 • Andre Léger
1907 • Frans Dictus
1921 • Alberto Ghirardi
1934 • Joseph Planckaert
1945 • Leif Mortensen
1952 • Alex Van Linden
1960 • Roberto Bressan
1960 • Bernard Chesneau
1962 • Paul Watson
1963 • Juan Rozas
1965 • Jean-Pierre Heynderickx
1967 • José-Manuel Oliveira
1970 • Wilfried Nelissen
1980 • Nick Nuyens
1996 • Jai Hindley

 

Optimized for Chrome - Edge
and Opera browsers.